EW4565 Weather Reports


Display with metric or nautical units.
time (UTC)temp
F
wind
direction
speed
MPH
gust
MPH
rain 1hr
in
rain 24hr
in
rain mn
in
humidity
%
barometer
mb
20260502162907 60 260 0.0 2.0 0.00 0.00 0.00 53 1018.4
20260502162404 59 262 0.0 2.0 0.00 0.00 0.00 53 1018.4
20260502161905 59 262 0.0 2.0 0.00 0.00 0.00 57 1018.5
20260502161407 58 262 0.0 2.0 0.00 0.00 0.00 56 1018.5
20260502160905 58 262 0.0 1.0 0.00 0.00 0.00 57 1018.5
20260502160404 58 262 0.0 1.0 0.00 0.00 0.00 56 1018.5
20260502151907 53 262 0.0 0.0 0.00 0.00 0.00 62 1018.7
20260502151404 53 262 0.0 0.0 0.00 0.00 0.00 63 1018.6
20260502150905 52 262 0.0 1.0 0.00 0.00 0.00 62 1018.7
20260502150405 52 262 0.0 1.0 0.00 0.00 0.00 61 1018.6
20260502130353 48 260 0.0 0.0 0.00 0.00 0.00 68 1018.0
20260502123351 48 260 0.0 0.0 0.00 0.00 0.00 67 1017.8
20260502122848 48 260 0.0 0.0 0.00 0.00 0.00 66 1017.9
20260502122347 48 260 0.0 0.0 0.00 0.00 0.00 66 1018.0
20260502121845 48 260 0.0 0.0 0.00 0.00 0.00 65 1018.1
20260502121343 48 260 0.0 0.0 0.00 0.00 0.00 66 1018.0
20260502120842 49 260 0.0 0.0 0.00 0.00 0.00 66 1017.9
20260502120338 49 260 0.0 0.0 0.00 0.00 0.00 66 1017.9
20260502120137 49 260 0.0 0.0 0.00 0.00 0.00 66 1017.9
20260502115337 49 260 0.0 0.0 0.00 0.00 0.00 65 1017.9
20260502114835 49 260 0.0 0.0 0.00 0.00 0.00 65 1017.8
20260502114335 49 260 0.0 0.0 0.00 0.00 0.00 64 1017.8
20260502113832 49 260 0.0 0.0 0.00 0.00 0.00 64 1017.8
20260502113330 49 260 0.0 0.0 0.00 0.00 0.00 64 1017.8
20260502112947 50 260 0.0 0.0 0.00 0.00 0.00 63 1017.8
20260502112925 49 260 0.0 0.0 0.00 0.00 0.00 63 1017.8
20260502111830 50 260 0.0 0.0 0.00 0.00 0.00 63 1017.8
20260502111330 50 260 0.0 0.0 0.00 0.00 0.00 63 1017.8
20260502110831 50 260 0.0 0.0 0.00 0.00 0.00 63 1017.8
20260502110330 50 260 0.0 0.0 0.00 0.00 0.00 62 1017.8
20260502105831 50 260 0.0 0.0 0.00 0.00 0.00 63 1017.8
20260502105329 50 260 0.0 0.0 0.00 0.00 0.00 63 1017.6
20260502104829 50 260 0.0 0.0 0.00 0.00 0.00 63 1017.6
20260502104329 51 260 0.0 0.0 0.00 0.00 0.00 61 1017.6
20260502103828 51 260 0.0 0.0 0.00 0.00 0.00 61 1017.6
20260502103324 51 260 0.0 0.0 0.00 0.00 0.00 60 1017.6
20260502102823 51 260 0.0 0.0 0.00 0.00 0.00 61 1017.6
20260502102618 51 260 0.0 0.0 0.00 0.00 0.00 61 1017.6
20260502101818 50 260 0.0 0.0 0.00 0.00 0.00 61 1017.5
20260502101317 50 260 0.0 0.0 0.00 0.00 0.00 61 1017.6
20260502100855 51 260 0.0 0.0 0.00 0.00 0.00 61 1017.4
20260502091309 52 260 0.0 0.0 0.00 0.00 0.00 56 1017.1
20260502090811 52 260 0.0 0.0 0.00 0.00 0.00 57 1017.1
20260502090559 52 260 0.0 0.0 0.00 0.00 0.00 57 1017.1
20260502071356 55 260 0.0 0.0 0.00 0.00 0.00 55 1016.5
20260502071342 55 260 0.0 0.0 0.00 0.00 0.00 55 1016.7
20260502070305 55 260 0.0 0.0 0.00 0.00 0.00 54 1016.6
20260502065804 56 260 0.0 0.0 0.00 0.00 0.00 54 1016.4
20260502065306 56 260 0.0 0.0 0.00 0.00 0.00 54 1016.4
20260502064803 56 260 0.0 0.0 0.00 0.00 0.00 54 1016.5
20260502064559 56 260 0.0 0.0 0.00 0.00 0.00 53 1016.5
20260502063804 56 260 0.0 0.0 0.00 0.00 0.00 53 1016.3
20260502063305 56 260 0.0 0.0 0.00 0.00 0.00 52 1016.4
20260502062805 56 260 0.0 0.0 0.00 0.00 0.00 52 1016.3
20260502062306 56 260 0.0 0.0 0.00 0.00 0.00 51 1016.3
20260502061806 56 260 0.0 0.0 0.00 0.00 0.00 51 1016.1
20260502061304 57 260 0.0 0.0 0.00 0.00 0.00 51 1015.9
20260502060803 57 260 0.0 0.0 0.00 0.00 0.00 50 1015.9
20260502060305 57 260 0.0 0.0 0.00 0.00 0.00 50 1015.8
20260502055805 58 260 0.0 0.0 0.00 0.00 0.00 49 1015.8
20260502055305 58 260 0.0 0.0 0.00 0.00 0.00 48 1015.8
20260502054805 58 260 0.0 0.0 0.00 0.00 0.00 48 1015.7
20260502054304 58 260 0.0 2.0 0.00 0.00 0.00 48 1015.7
20260502053804 58 260 0.0 2.0 0.00 0.00 0.00 47 1015.8
20260502053303 58 259 0.0 2.0 0.00 0.00 0.00 48 1015.7
20260502052805 59 259 0.0 2.0 0.00 0.00 0.00 48 1015.7
20260502052306 59 253 0.0 0.0 0.00 0.00 0.00 49 1015.5
20260502051805 59 253 0.0 0.0 0.00 0.00 0.00 49 1015.4
20260502051306 59 253 0.0 0.0 0.00 0.00 0.00 50 1015.3
20260502050804 60 254 0.0 0.0 0.00 0.00 0.00 50 1015.3
20260502050304 60 253 0.0 0.0 0.00 0.00 0.00 52 1015.3
20260502045804 60 254 0.0 0.0 0.00 0.00 0.00 50 1015.3
20260502045306 60 254 0.0 0.0 0.00 0.00 0.00 50 1015.2
20260502044807 61 254 0.0 0.0 0.00 0.00 0.00 49 1015.2
20260502044303 61 253 0.0 0.0 0.00 0.00 0.00 48 1015.0
20260502043804 62 254 0.0 0.0 0.00 0.00 0.00 47 1015.2
20260502043304 62 254 0.0 0.0 0.00 0.00 0.00 48 1015.0
20260502043056 62 253 0.0 0.0 0.00 0.00 0.00 46 1015.0
20260502042306 62 253 0.0 0.0 0.00 0.00 0.00 47 1015.0
20260502041807 62 254 0.0 0.0 0.00 0.00 0.00 46 1014.9
20260502041423 63 254 0.0 0.0 0.00 0.00 0.00 46 1014.9
20260502041356 63 253 0.0 0.0 0.00 0.00 0.00 46 1014.9
20260502040306 63 253 0.0 1.0 0.00 0.00 0.00 45 1014.9
20260502040056 63 253 0.0 1.0 0.00 0.00 0.00 45 1015.0
20260502035306 63 254 0.0 0.0 0.00 0.00 0.00 45 1014.9
20260502035111 64 253 0.0 0.0 0.00 0.00 0.00 45 1014.8
20260502034559 64 254 0.0 0.0 0.00 0.00 0.00 43 1014.8
20260502034056 64 254 0.0 1.0 0.00 0.00 0.00 44 1014.7
20260502033303 64 254 0.0 1.0 0.00 0.00 0.00 43 1014.6
20260502033054 65 253 0.0 0.0 0.00 0.00 0.00 43 1014.5
20260502032306 65 253 0.0 0.0 0.00 0.00 0.00 42 1014.2
20260502031803 65 253 0.0 0.0 0.00 0.00 0.00 41 1014.2
20260502031304 65 253 0.0 0.0 0.00 0.00 0.00 41 1014.1
20260502030804 66 253 0.0 0.0 0.00 0.00 0.00 41 1014.0
20260502030304 66 253 0.0 0.0 0.00 0.00 0.00 41 1014.0
20260502025803 67 253 0.0 0.0 0.00 0.00 0.00 40 1013.9
20260502025306 67 253 0.0 0.0 0.00 0.00 0.00 40 1013.9
20260502024803 67 253 0.0 0.0 0.00 0.00 0.00 38 1013.9
20260502024304 68 253 0.0 0.0 0.00 0.00 0.00 37 1013.8
20260502023804 68 253 0.0 0.0 0.00 0.00 0.00 37 1013.8
20260502023418 69 253 0.0 0.0 0.00 0.00 0.00 34 1013.8
20260502023353 69 253 0.0 0.0 0.00 0.00 0.00 36 1013.8
20260502022306 69 253 0.0 1.0 0.00 0.00 0.00 32 1013.6
20260502021804 70 253 0.0 1.0 0.00 0.00 0.00 31 1013.7
20260502021303 70 253 0.0 4.0 0.00 0.00 0.00 31 1013.6
20260502021054 70 253 0.0 4.0 0.00 0.00 0.00 30 1013.7
20260502020347 70 282 0.0 1.0 0.00 0.00 0.00 31 1013.6
20260502015306 70 282 0.0 2.0 0.00 0.00 0.00 31 1013.5
20260502014805 71 280 0.0 4.0 0.00 0.00 0.00 31 1013.6
20260502014304 71 281 0.0 4.0 0.00 0.00 0.00 32 1013.6
20260502013805 71 279 1.0 4.0 0.00 0.00 0.00 33 1013.6
20260502013306 71 274 1.0 4.0 0.00 0.00 0.00 34 1013.7
20260502012804 71 274 1.0 4.0 0.00 0.00 0.00 35 1013.6
20260502012306 71 273 0.0 4.0 0.00 0.00 0.00 36 1013.6
20260502011803 71 272 1.0 4.0 0.00 0.00 0.00 36 1013.7
20260502011303 71 271 1.0 4.0 0.00 0.00 0.00 36 1013.6
20260502010803 71 273 1.0 4.0 0.00 0.00 0.00 38 1013.6
20260502010304 70 278 1.0 4.0 0.00 0.00 0.00 39 1013.7
20260502005804 70 278 0.0 4.0 0.00 0.00 0.00 39 1013.8
20260502005306 70 278 1.0 6.0 0.00 0.00 0.00 40 1013.8
20260502004805 70 279 1.0 6.0 0.00 0.00 0.00 40 1013.8
20260502004305 70 280 1.0 4.0 0.00 0.00 0.00 41 1013.8
20260502003805 70 275 1.0 4.0 0.00 0.00 0.00 42 1013.9
20260502003304 70 278 1.0 4.0 0.00 0.00 0.00 40 1013.9
20260502003110 70 277 1.0 3.0 0.00 0.00 0.00 41 1013.9
20260502002305 71 279 0.0 5.0 0.00 0.00 0.00 40 1013.9
20260502001907 72 278 1.0 6.0 0.00 0.00 0.00 40 1014.0
20260502001844 71 278 1.0 5.0 0.00 0.00 0.00 41 1013.9
20260502000802 73 276 0.0 6.0 0.00 0.00 0.00 39 1014.1
20260502000303 73 81 0.0 2.0 0.00 0.00 0.00 39 1014.0
20260501235802 74 81 0.0 2.0 0.00 0.00 0.00 39 1014.0
20260501235305 74 80 0.0 3.0 0.00 0.00 0.00 36 1013.9
20260501234804 75 63 1.0 4.0 0.00 0.00 0.00 27 1013.8
20260501234301 75 55 1.0 4.0 0.00 0.00 0.00 27 1013.8
20260501233802 75 56 1.0 4.0 0.00 0.00 0.00 27 1013.9
20260501233601 75 56 1.0 4.0 0.00 0.00 0.00 28 1013.9
20260501232802 75 56 1.0 6.0 0.00 0.00 0.00 28 1014.0
20260501232306 75 56 2.0 6.0 0.00 0.00 0.00 27 1014.1
20260501231807 75 61 2.0 7.0 0.00 0.00 0.00 27 1014.1
20260501231409 75 54 2.0 8.0 0.00 0.00 0.00 26 1014.2
20260501231345 75 125 2.0 7.0 0.00 0.00 0.00 27 1014.2
20260501230604 75 54 2.0 8.0 0.00 0.00 0.00 27 1014.2
20260501225800 75 86 1.0 5.0 0.00 0.00 0.00 28 1014.2
20260501225301 75 104 1.0 4.0 0.00 0.00 0.00 27 1014.2
20260501224801 75 95 2.0 6.0 0.00 0.00 0.00 27 1014.3
20260501224301 75 130 1.0 9.0 0.00 0.00 0.00 27 1014.5
20260501223803 75 114 2.0 9.0 0.00 0.00 0.00 26 1014.5
20260501223301 76 162 2.0 8.0 0.00 0.00 0.00 26 1014.5
20260501222801 76 67 2.0 6.0 0.00 0.00 0.00 26 1014.5
20260501222306 76 126 1.0 5.0 0.00 0.00 0.00 25 1014.6
20260501222059 76 154 1.0 6.0 0.00 0.00 0.00 27 1014.7
20260501221600 75 152 1.0 6.0 0.00 0.00 0.00 26 1014.7
20260501220805 75 179 1.0 5.0 0.00 0.00 0.00 27 1014.7
20260501220611 75 179 1.0 5.0 0.00 0.00 0.00 25 1014.8
20260501215800 75 209 2.0 13.0 0.00 0.00 0.00 29 1014.8
20260501215305 75 266 3.0 13.0 0.00 0.00 0.00 29 1014.8
20260501214803 75 45 2.0 9.0 0.00 0.00 0.00 27 1014.8
20260501214604 75 67 2.0 7.0 0.00 0.00 0.00 27 1015.2
20260501213801 76 79 1.0 5.0 0.00 0.00 0.00 27 1015.1
20260501213304 75 78 1.0 5.0 0.00 0.00 0.00 26 1015.2
20260501212802 75 194 1.0 5.0 0.00 0.00 0.00 28 1015.2
20260501212305 75 195 2.0 6.0 0.00 0.00 0.00 27 1015.2
20260501211802 75 100 1.0 6.0 0.00 0.00 0.00 27 1015.4
20260501211302 74 159 0.0 5.0 0.00 0.00 0.00 28 1015.3
20260501210804 74 159 0.0 5.0 0.00 0.00 0.00 32 1015.5
20260501210300 74 173 0.0 3.0 0.00 0.00 0.00 33 1015.5
20260501205803 74 172 0.0 3.0 0.00 0.00 0.00 31 1015.6
20260501205306 73 174 0.0 2.0 0.00 0.00 0.00 33 1015.6
20260501204801 73 173 0.0 2.0 0.00 0.00 0.00 30 1015.6
20260501204303 73 173 0.0 3.0 0.00 0.00 0.00 35 1015.7
20260501203802 72 172 1.0 3.0 0.00 0.00 0.00 37 1015.7
20260501203301 71 181 1.0 2.0 0.00 0.00 0.00 37 1015.7
20260501202801 71 181 1.0 3.0 0.00 0.00 0.00 40 1015.8
20260501202302 71 181 0.0 3.0 0.00 0.00 0.00 39 1015.9
20260501201803 71 224 0.0 3.0 0.00 0.00 0.00 40 1016.1
20260501201302 70 221 0.0 2.0 0.00 0.00 0.00 41 1016.2
20260501200802 70 221 0.0 3.0 0.00 0.00 0.00 39 1016.2
20260501200300 69 221 0.0 3.0 0.00 0.00 0.00 41 1016.2
20260501195801 69 214 1.0 6.0 0.00 0.00 0.00 40 1016.4
20260501195555 69 218 1.0 8.0 0.00 0.00 0.00 40 1016.5
20260501194801 69 264 1.0 8.0 0.00 0.00 0.00 43 1016.4
20260501194301 69 59 1.0 7.0 0.00 0.00 0.00 41 1016.5
20260501193804 69 70 1.0 4.0 0.00 0.00 0.00 42 1016.6
20260501193302 69 84 1.0 5.0 0.00 0.00 0.00 40 1016.7
20260501192800 68 115 1.0 5.0 0.00 0.00 0.00 41 1016.7
20260501192306 68 170 0.0 5.0 0.00 0.00 0.00 46 1016.8
20260501191804 67 171 0.0 5.0 0.00 0.00 0.00 42 1017.0
20260501191304 67 94 0.0 3.0 0.00 0.00 0.00 41 1016.9
20260501190803 67 91 0.0 3.0 0.00 0.00 0.00 44 1017.0
20260501190302 66 91 1.0 3.0 0.00 0.00 0.00 43 1017.2
20260501185800 66 91 1.0 6.0 0.00 0.00 0.00 41 1017.3
20260501185611 66 87 1.0 6.0 0.00 0.00 0.00 43 1017.3
20260501184801 66 128 1.0 4.0 0.00 0.00 0.00 43 1017.4
20260501184300 66 133 0.0 3.0 0.00 0.00 0.00 42 1017.3
20260501183758 66 133 0.0 3.0 0.00 0.00 0.00 43 1017.4
20260501183257 65 137 0.0 2.0 0.00 0.00 0.00 41 1017.4
20260501182759 65 137 0.0 2.0 0.00 0.00 0.00 44 1017.5
20260501182300 64 137 1.0 4.0 0.00 0.00 0.00 44 1017.5
20260501181756 64 136 1.0 6.0 0.00 0.00 0.00 43 1017.8
20260501181254 63 124 1.0 6.0 0.00 0.00 0.00 45 1017.6
20260501180752 63 178 0.0 4.0 0.00 0.00 0.00 47 1017.8
20260501180246 62 179 0.0 4.0 0.00 0.00 0.00 47 1017.9
20260501175741 62 179 1.0 5.0 0.00 0.00 0.00 48 1017.9
20260501175241 62 179 1.0 5.0 0.00 0.00 0.00 49 1018.0
20260501174743 62 179 1.0 6.0 0.00 0.00 0.00 48 1018.1
20260501174241 62 174 1.0 6.0 0.00 0.00 0.00 48 1018.1
20260501173741 62 159 1.0 5.0 0.00 0.00 0.00 50 1018.1
20260501173239 62 145 1.0 4.0 0.00 0.00 0.00 48 1018.1
20260501172739 61 143 1.0 3.0 0.00 0.00 0.00 49 1018.2
20260501172538 61 139 0.0 3.0 0.00 0.00 0.00 49 1018.3
20260501171737 61 139 0.0 4.0 0.00 0.00 0.00 49 1018.3
20260501171236 60 141 0.0 4.0 0.00 0.00 0.00 49 1018.2
20260501170736 60 93 0.0 4.0 0.00 0.00 0.00 50 1018.4
20260501170236 59 81 1.0 4.0 0.00 0.00 0.00 51 1018.3
20260501165734 59 81 1.0 4.0 0.00 0.00 0.00 50 1018.4
20260501165527 58 98 1.0 3.0 0.00 0.00 0.00 52 1018.4
20260501164733 58 98 1.0 3.0 0.00 0.00 0.00 50 1018.5
20260501164233 58 73 0.0 3.0 0.00 0.00 0.00 51 1018.6
20260501163732 58 39 1.0 3.0 0.00 0.00 0.00 51 1018.7